Regional Weather Roundup
Issued by NWS

Home | Current Version | Previous Version | Text Only | Print | Product List | Glossary Off
Versions: 1 2 3 4 5 6 7 8 9 10 11 12 13 14 15 16 17 18 19 20 21 22 23 24 25 26 27 28 29 30 31 32 33 34 35 36 37 38 39 40 41 42 43 44 45 46 47 48 49 50

000
ASUS43 KDMX 260301
RWRIA

WEATHER ROUNDUP FOR IOWA
NATIONAL WEATHER SERVICE DES MOINES IA
900 PM CST SAT FEB 25 2017

NOTE: "FAIR" INDICATES FEW OR NO CLOUDS BELOW 12,000 FEET WITH NO
SIGNIFICANT WEATHER AND/OR OBSTRUCTIONS TO VISIBILITY.

* - THESE STATIONS ARE NOT NWS STATIONS...THUS NOT UNDER NWS
QUALITY CONTROL.  THEY ALSO DO NOT REPORT WEATHER SUCH
AS PRECIPITATION OR FOG.

IAZ001>003-012>014-020>022-031>034-043>046-260400-
   NORTHWEST IOWA

CITY           SKY/WX    TMP DP  RH WIND       PRES   REMARKS
CARROLL *      CLOUDY    27  23  86 S10       29.91F WCI  17
CHEROKEE *     CLEAR     21  13  72 S7        29.87F WCI  12
DENISON *      MOCLDY    25  19  80 S8        29.88F WCI  16
LE MARS *      CLEAR     23  16  74 S10G16    29.87S WCI  12
SHELDON *      MOCLDY    21  19  93 S10       29.83F WCI  10
SIOUX CITY     CLEAR     22  14  71 E7        29.88S WCI  13
SPENCER        CLEAR     17  11  77 S9        29.86F WCI   6
STORM LAKE *   PTCLDY    18  14  86 S13       29.87F WCI   4
$$

IAZ055>058-069>071-079>083-090>094-260400-
   SOUTHWEST IOWA

CITY           SKY/WX    TMP DP  RH WIND       PRES   REMARKS
ATLANTIC *     CLOUDY    30  21  69 S10       29.93F WCI  21
AUDUBON *      CLOUDY    28  21  74 CALM      29.92F
CLARINDA *     CLOUDY    34  21  60 S7G14     29.99F WCI  28
COUNCIL BLFS * MOCLDY    28  23  80 S10       29.92S WCI  19
CRESTON *      MOCLDY    30  19  64 S9        29.97F WCI  22
HARLAN  *      MOCLDY    28  23  80 S8        29.95F WCI  20
LAMONI         CLOUDY    29  17  61 S8        30.00F WCI  21
RED OAK *      CLOUDY    32  23  69 S9        29.95F WCI  24
SHENANDOAH *   CLOUDY    34  23  64 SE9       29.96F WCI  26
$$

IAZ047>049-059>061-072>074-084-260400-
   CENTRAL IOWA

CITY           SKY/WX    TMP DP  RH WIND       PRES   REMARKS
AMES           PTCLDY    21  19  92 S7        29.97F WCI  12
ANKENY *       MOCLDY    27  21  80 S3        30.00F
BOONE *        CLOUDY    23  19  86 S8        29.95F WCI  14
CHARITON *     CLOUDY    28  19  69 S7        30.00F WCI  21
DES MOINES     CLOUDY    29  20  69 S9        29.99F WCI  20
GRINNELL*      CLOUDY    24  19  79 S5        30.02S WCI  19
KNOXVILLE *    CLOUDY    28  18  64 S6        30.00S WCI  22
MARSHALLTOWN   CLOUDY    25  19  78 S7        29.99S WCI  17
NEWTON *       MOCLDY    25  19  80 S7        30.00S WCI  17
PELLA *        CLEAR     28  19  71 S7        30.03S WCI  20
PERRY *        CLOUDY    27  22  80 S9        29.96F WCI  18
$$

IAZ004>006-015-016-023>025-035-036-260400-
   NORTH CENTRAL IOWA

CITY           SKY/WX    TMP DP  RH WIND       PRES   REMARKS
ALGONA *       FLURRIES  21  18  86 S14       29.89F WCI   8
CLARION *      CLOUDY    23  19  86 S10       29.94S WCI  12
ESTHERVILLE    MOCLDY    17  14  88 S12       29.86F WCI   4
FORT DODGE *   CLOUDY    25  16  68 S8        29.93F WCI  16
MASON CITY     CLOUDY    19  13  77 S9        29.94S WCI   8
FOREST CITY *    N/A     19  16  86 S10       29.92S WCI   8
WEBSTER CITY * CLOUDY    23  18  80 S10       29.93F WCI  12
IOWA FALLS *   CLOUDY    25  19  80 S10       29.96F WCI  14
$$

IAZ007>011-017>019-026>030-037>042-050>054-066-260400-
   NORTHEAST IOWA

CITY           SKY/WX    TMP DP  RH WIND       PRES   REMARKS
CEDAR RAPIDS   CLOUDY    22  19  89 S3        30.01F
CHARLES CITY * CLOUDY    19  16  86 S9        29.96S WCI   9
CLINTON *      CLOUDY    23  19  85 MISG      30.06R
DECORAH *      CLOUDY    19  14  79 SW9       29.96R WCI   9
DUBUQUE        CLEAR     18  14  84 SW6       30.01S WCI  10
MONTICELLO *   CLOUDY    23  18  80 SW5       30.03S WCI  17
OELWEIN *      CLOUDY    23  19  86 S8        29.99S WCI  14
WATERLOO       PTCLDY    22  15  75 S5        29.99F WCI  16
$$

IAZ064-065-067-068-078-260400-
   EAST CENTRAL IOWA

CITY           SKY/WX    TMP DP  RH WIND       PRES   REMARKS
DAVENPORT      CLEAR     24  18  77 W7        30.06R WCI  16
IOWA CITY      CLOUDY    27  18  69 CALM      30.06F
MUSCATINE *    CLOUDY    28  19  69 CALM      30.08S
QUAD CITIES    PTCLDY    26  16  65 W3        30.06S
$$

IAZ062-063-075>077-085>089-095>099-260400-
   SOUTHEAST IOWA

CITY           SKY/WX    TMP DP  RH WIND       PRES   REMARKS
BURLINGTON     CLOUDY    28  20  71 SW3       30.07S
FAIRFIELD *    CLOUDY    28  16  59 S6        30.04F WCI  22
KEOKUK *       CLOUDY    28  14  54 S3        30.07S
CENTERVILLE *  MOCLDY    27  19  74 CALM      30.05S
OTTUMWA        CLOUDY    28  19  69 S7        30.03S WCI  21
WASHINGTON *   CLOUDY    27  21  80 S5        30.06S WCI  21
$$

ABBREVIATIONS USED IN REMARKS
   TC - TEMPERATURES IN CELSIUS
  WCI - WIND CHILL INDEX
   HX - HEAT INDEX
  VSB - VISIBILITY
$$





USA.gov is the U.S. government's official web portal to all federal, state and local government web resources and services.